Ellensburg, WA

2:49 AM PDT on July 22, 2017 (GMT -0700)
Bowers

Weather History for KELN - January, 2013

Change the Weather History Date:

Wednesday, January 23, 2013

  Actual Average (KYKM) Record (KYKM)
Temperature  
Mean Temperature 24 °F -  
Max Temperature 28 °F 39 °F 61 °F (1953)
Min Temperature 21 °F 24 °F -7 °F (1969)
Degree Days  
Heating Degree Days 40    
Moisture  
Dew Point 19 °F    
Average Humidity 75    
Maximum Humidity 82    
Minimum Humidity 69    
Precipitation  
Precipitation 0.00 in - - ()
Sea Level Pressure  
Sea Level Pressure 30.08 in    
Wind  
Wind Speed 2 mph (East)    
Max Wind Speed 7 mph    
Max Gust Speed -    
Visibility 9 miles    
Events      
Averages and records for this station are not official NWS values.
T = Trace of Precipitation, MM = Missing Value Source: NWS Daily Summary

Daily Weather History Graph

Daily Weather History Graph

Search for Another Location

Airport or City:

Trip Planner

Search our weather history database for the weather conditions in past years. The results will help you decide how hot, cold, wet, or windy it might be!

Date:

Astronomy

Jan. 23, 2013 Rise Set
Actual Time 7:36 AM PST 4:51 PM PST
Civil Twilight 7:03 AM PST 5:25 PM PST
Nautical Twilight 6:26 AM PST 6:02 PM PST
Astronomical Twilight 5:50 AM PST 6:38 PM PST
Moon 2:03 PM PST (1/23) 4:55 AM PST (1/23)
Length of Visible Light 10h 21m
Length of Day
9h 15m
Waxing Gibbous, 90% of the Moon is Illuminated
Jan 23
Waxing Gibbous
Jan 26
Full
Feb 3
Last Quarter
Feb 9
New
Feb 17
First Quarter

Hourly Weather History & Observations

Time (PST) Temp. Windchill Dew Point Humidity Pressure Visibility Wind Dir Wind Speed Gust Speed Precip Events Conditions
12:53 AM 23.0 °F - 18.0 °F 81% 30.21 in 9.0 mi Calm Calm - N/A   Overcast
1:17 AM 23.0 °F 14.7 °F 17.6 °F 80% 30.12 in 9.0 mi ENE 6.9 mph - N/A   Mostly Cloudy
1:53 AM 23.0 °F - 18.0 °F 81% 30.19 in 10.0 mi Calm Calm - N/A   Scattered Clouds
2:22 AM 24.8 °F - 17.6 °F 74% 30.12 in 10.0 mi Calm Calm - N/A   Mostly Cloudy
2:53 AM 24.1 °F - 18.0 °F 77% 30.19 in 10.0 mi Calm Calm - N/A   Mostly Cloudy
3:53 AM 24.1 °F - 17.1 °F 75% 30.15 in 10.0 mi Calm Calm - N/A   Overcast
4:32 AM 24.8 °F - 17.6 °F 74% 30.08 in 8.0 mi Calm Calm - N/A   Overcast
4:53 AM 24.1 °F - 18.0 °F 77% 30.17 in 8.0 mi Calm Calm - N/A   Overcast
5:12 AM 24.8 °F 20.5 °F 17.6 °F 74% 30.09 in 8.0 mi ENE 3.5 mph - N/A   Overcast
5:53 AM 24.1 °F - 18.0 °F 77% 30.15 in 10.0 mi Calm Calm - N/A   Mostly Cloudy
6:53 AM 24.1 °F - 18.0 °F 77% 30.12 in 10.0 mi Calm Calm - N/A   Overcast
7:53 AM 24.1 °F - 19.0 °F 81% 30.12 in 7.0 mi Calm Calm - N/A   Overcast
8:53 AM 25.0 °F - 18.0 °F 75% 30.10 in 8.0 mi Calm Calm - N/A   Overcast
9:53 AM 25.0 °F - 19.0 °F 78% 30.10 in 10.0 mi Calm Calm - N/A   Overcast
10:53 AM 27.0 °F 20.5 °F 19.0 °F 72% 30.10 in 10.0 mi NE 5.8 mph - N/A   Overcast
11:53 AM 27.0 °F - 19.0 °F 72% 30.06 in 10.0 mi Calm Calm - N/A   Overcast
12:53 PM 27.0 °F - 19.0 °F 72% 30.03 in 10.0 mi Calm Calm - N/A   Overcast
1:53 PM 28.0 °F 24.2 °F 19.9 °F 72% 30.01 in 8.0 mi East 3.5 mph - N/A   Overcast
2:53 PM 28.9 °F - 19.9 °F 69% 29.99 in 10.0 mi Calm Calm - N/A   Mostly Cloudy
3:39 PM 28.4 °F - 19.4 °F 69% 29.93 in 9.0 mi Calm Calm - N/A   Overcast
3:53 PM 28.9 °F - 19.9 °F 69% 30.00 in 9.0 mi Calm Calm - N/A   Overcast
4:02 PM 28.4 °F - 19.4 °F 69% 29.94 in 8.0 mi Calm Calm - N/A   Overcast
4:23 PM 28.4 °F 23.3 °F 21.2 °F 74% 29.95 in 9.0 mi NE 4.6 mph - N/A   Overcast
4:53 PM 28.9 °F 25.2 °F 21.0 °F 72% 30.01 in 7.0 mi East 3.5 mph - N/A   Overcast
5:53 PM 28.0 °F 24.2 °F 21.0 °F 75% 30.01 in 10.0 mi West 3.5 mph - N/A   Mostly Cloudy
6:11 PM 28.4 °F 23.3 °F 21.2 °F 74% 29.95 in 10.0 mi West 4.6 mph - N/A   Scattered Clouds
7:53 PM 26.1 °F 21.9 °F 19.9 °F 78% 30.04 in 8.0 mi NW 3.5 mph - N/A   Mostly Cloudy
8:53 PM 21.9 °F 17.2 °F 17.1 °F 82% 30.07 in - East 3.5 mph - N/A   Partly Cloudy
9:53 PM 23.0 °F 18.4 °F 17.1 °F 78% 30.09 in - SE 3.5 mph - N/A   Clear
10:53 PM 21.0 °F 12.4 °F 16.0 °F 81% 30.11 in - East 6.9 mph - N/A   Partly Cloudy
11:53 PM 21.9 °F 14.5 °F 16.0 °F 78% 30.13 in - SE 5.8 mph - N/A   Partly Cloudy